星链-5200 (STARLINK-5200 )

导读 | 豆包AI

STARLINK-5200是美国SpaceX公司星链星座中的卫星,于2022年10月20日发射升空,属于星链第二代低轨互联网星座的V2 Mini批次。它采用先进相控阵天线技术,具备更高通信容量与更强信号处理能力,可提供高速低延迟网络服务,助力实现全球范围宽带互联网覆盖,尤其服务偏远地区,进一步扩充了星链星座规模与服务能力。

基本信息
目录编号:
54103
目录名称:
STARLINK-5200
国际标识:
2022-136BE
轨道中心:
EARTH
卫星名称:
星链-5200
卫星全名:
星链-5200 (STARLINK-5200 )
卫星状态:
在轨 (已飞行1288 天)
发射日期:
2022-10-20 UTC
国别 :
美国 (US)
星等 :
--
轨道信息
数据来源 国际轨道数据 AOE轨道数据
星历时间 2026-04-30T12:43:01+0800
10小时前
查看轨道信息
2026-04-28T17:00:00+0800
2天前
查看轨道信息
半长轴 6917.893km 6917.89km
偏心率 0.0001585 0.0001579
轨道倾角 53.218° 53.215°
近地点辐角 81.089° 76.133°
升交点赤经 82.683° 90.861°
平近点角 279.028° 104.346°
近地点 538.659km 538.66km
远地点 540.853km 540.846km
周期 95.438分钟 95.438分钟
每日圈数 15.08836 15.088369
详细信息
固有亮度:
5
最大亮度:
2.5
卫星平台:
Starlink v1.5
覆盖范围:
全球
运营商:
太空探索技术公司
运营商所在国:
美国
制造商(研发单位):
太空探索技术公司
制造商所在国:
美国
使用方式:
暂无
卫星简介
星链(Starlink)计划是由太空探索技术公司(SpaceX)提出的一个巨型低轨卫星互联网星座项目,计划在2019年至2024年间在太空搭建由约1.2万颗卫星组成的“星链”网络,其中1584颗将部署在地球上空550千米处的近地轨道,并从2020年开始工作。该卫星仍在工作。
2D轨道图
3D轨道图
轨道高度分析图
轨道倾角分析图
轨道综合分析图
查看轨道综合分析图